Weather History for Spartanburg, SC

Change the Weather History Date:

Thursday, March 28, 2013

  Actual Average (KGSP) Record (KGSP)
Temperature  
Mean Temperature 46 °F 56 °F  
Max Temperature 62 °F 68 °F 84 °F (2007)
Min Temperature 30 °F 44 °F 26 °F (1982)
Degree Days  
Heating Degree Days 19 9  
Month to date heating degree days 357  
Since 1 July heating degree days 2806  
Cooling Degree Days 0 0  
Month to date cooling degree days 0  
Year to date cooling degree days 0  
Moisture  
Dew Point 24 °F    
Average Humidity 47    
Maximum Humidity 87    
Minimum Humidity 20    
Precipitation  
Precipitation 0.00 in 0.14 in 2.31 in (1980)
Month to date precipitation 4.09  
Year to date precipitation 11.88  
Snow  
Snow 0.00 in 0.00 in T in (2010)
Month to date snowfall 0.9  
Since 1 July snowfall 4.7  
Snow Depth -    
Sea Level Pressure  
Sea Level Pressure 30.25 in    
Wind  
Wind Speed 3 mph (NNW)    
Max Wind Speed 14 mph    
Max Gust Speed 23 mph    
Visibility 10 miles    
Events      
T = Trace of Precipitation, MM = Missing Value Source: NWS Daily Summary

Daily Weather History Graph

Daily Weather History Graph

Search for Another Location

Airport:

Trip Planner

Search our weather history database for the weather conditions in past years. The results will help you decide how hot, cold, wet, or windy it might be!

Date:

Astronomy

Mar. 28, 2013 Rise Set
Actual Time 7:19 AM EDT 7:46 PM EDT
Civil Twilight 6:54 AM EDT 8:11 PM EDT
Nautical Twilight 6:24 AM EDT 8:41 PM EDT
Astronomical Twilight 5:54 AM EDT 9:11 PM EDT
Moon 9:30 PM EDT 7:51 AM EDT
Length of Visible Light 13h 16m
Length of Day
12h 26m
Full, 98% of the Moon is Illuminated
Mar 28
Full
Apr 3
Last Quarter
Apr 10
New
Apr 18
First Quarter
Apr 25
Full

Hourly Weather History & Observations

Time (EDT) Temp. Windchill Dew Point Humidity Pressure Visibility Wind Dir Wind Speed Gust Speed Precip Events Conditions
12:15 AM 41.0 °F - 24.8 °F 53% 30.25 in 10.0 mi Calm Calm - N/A   Clear
12:35 AM 41.0 °F - 24.8 °F 53% 30.25 in 10.0 mi Calm Calm - N/A   Clear
12:55 AM 39.2 °F - 24.8 °F 56% 30.25 in 10.0 mi Calm Calm - N/A   Clear
1:15 AM 37.4 °F - 26.6 °F 65% 30.25 in 10.0 mi Calm Calm - N/A   Clear
1:35 AM 37.4 °F - 26.6 °F 65% 30.25 in 10.0 mi Calm Calm - N/A   Clear
1:55 AM 35.6 °F - 26.6 °F 70% 30.24 in 10.0 mi Calm Calm - N/A   Clear
2:15 AM 33.8 °F - 28.4 °F 81% 30.25 in 10.0 mi Calm Calm - N/A   Clear
2:35 AM 35.6 °F - 26.6 °F 70% 30.25 in 10.0 mi Calm Calm - N/A   Clear
2:55 AM 33.8 °F - 28.4 °F 81% 30.25 in 10.0 mi Calm Calm - N/A   Clear
3:15 AM 33.8 °F - 26.6 °F 75% 30.25 in 10.0 mi Calm Calm - N/A   Clear
3:35 AM 32.0 °F 28.7 °F 26.6 °F 80% 30.25 in 10.0 mi WSW 3.5 mph - N/A   Clear
3:55 AM 32.0 °F - 28.4 °F 87% 30.25 in 10.0 mi Calm Calm - N/A   Clear
4:15 AM 32.0 °F - 26.6 °F 80% 30.25 in 10.0 mi Calm Calm - N/A   Clear
4:35 AM 32.0 °F 28.7 °F 26.6 °F 80% 30.24 in 10.0 mi East 3.5 mph - N/A   Clear
4:55 AM 32.0 °F - 26.6 °F 80% 30.25 in 10.0 mi Calm Calm - N/A   Clear
5:15 AM 32.0 °F - 26.6 °F 80% 30.25 in 10.0 mi Calm Calm - N/A   Clear
5:35 AM 32.0 °F - 28.4 °F 87% 30.25 in 10.0 mi Calm Calm - N/A   Clear
5:55 AM 33.8 °F - 26.6 °F 75% 30.25 in 10.0 mi Calm Calm - N/A   Clear
6:15 AM 30.2 °F - 26.6 °F 86% 30.25 in 10.0 mi Calm Calm - N/A   Clear
6:35 AM 32.0 °F - 26.6 °F 80% 30.26 in 10.0 mi Calm Calm - N/A   Clear
6:55 AM 30.2 °F - 26.6 °F 86% 30.27 in 10.0 mi Calm Calm - N/A   Clear
7:15 AM 32.0 °F - 26.6 °F 80% 30.27 in 10.0 mi Calm Calm - N/A   Clear
7:35 AM 32.0 °F - 26.6 °F 80% 30.28 in 10.0 mi Calm Calm - N/A   Clear
7:55 AM 33.8 °F - 26.6 °F 75% 30.28 in 10.0 mi Calm Calm - N/A   Clear
8:15 AM 32.0 °F 28.7 °F 26.6 °F 80% 30.29 in 10.0 mi WNW 3.5 mph - N/A   Clear
8:35 AM 33.8 °F - 28.4 °F 81% 30.30 in 10.0 mi Calm Calm - N/A   Clear
8:55 AM 41.0 °F - 28.4 °F 61% 30.30 in 10.0 mi Calm Calm - N/A   Clear
9:15 AM 42.8 °F 40.1 °F 28.4 °F 57% 30.30 in 10.0 mi NW 4.6 mph - N/A   Clear
9:35 AM 44.6 °F 39.7 °F 26.6 °F 49% 30.30 in 10.0 mi NW 9.2 mph - N/A   Clear
9:55 AM 44.6 °F 39.2 °F 26.6 °F 49% 30.31 in 10.0 mi NW 10.4 mph - N/A   Clear
10:15 AM 44.6 °F 38.4 °F 26.6 °F 49% 30.31 in 10.0 mi NW 12.7 mph 21.9 mph N/A   Clear
10:35 AM 46.4 °F 41.9 °F 26.6 °F 46% 30.30 in 10.0 mi NW 9.2 mph 19.6 mph N/A   Clear
10:55 AM 48.2 °F - 24.8 °F 40% 30.30 in 10.0 mi NW 13.8 mph 21.9 mph N/A   Clear
11:15 AM 50.0 °F - 23.0 °F 35% 30.30 in 10.0 mi WNW 11.5 mph 18.4 mph N/A   Clear
11:35 AM 50.0 °F - 23.0 °F 35% 30.30 in 10.0 mi WNW 10.4 mph 16.1 mph N/A   Clear
11:55 AM 50.0 °F - 23.0 °F 35% 30.29 in 10.0 mi WNW 8.1 mph - N/A   Clear
12:15 PM 51.8 °F - 23.0 °F 33% 30.29 in 10.0 mi North 6.9 mph - N/A   Clear
12:35 PM 51.8 °F - 21.2 °F 30% 30.28 in 10.0 mi NW 8.1 mph 23.0 mph N/A   Clear
12:55 PM 53.6 °F - 21.2 °F 28% 30.28 in 10.0 mi NW 10.4 mph 17.3 mph N/A   Clear
1:15 PM 53.6 °F - 21.2 °F 28% 30.27 in 10.0 mi WNW 9.2 mph 20.7 mph N/A   Clear
1:35 PM 55.4 °F - 21.2 °F 26% 30.26 in 10.0 mi NW 10.4 mph 17.3 mph N/A   Clear
1:55 PM 55.4 °F - 19.4 °F 25% 30.25 in 10.0 mi North 10.4 mph 23.0 mph N/A   Clear
2:15 PM 55.4 °F - 21.2 °F 26% 30.25 in 10.0 mi NW 11.5 mph 18.4 mph N/A   Clear
2:35 PM 57.2 °F - 23.0 °F 27% 30.24 in 10.0 mi NW 12.7 mph 18.4 mph N/A   Clear
2:55 PM 59.0 °F - 23.0 °F 25% 30.23 in 10.0 mi West 6.9 mph 16.1 mph N/A   Clear
3:35 PM 59.0 °F - 23.0 °F 25% 30.22 in 10.0 mi WNW 4.6 mph - N/A   Clear
3:55 PM 60.8 °F - 23.0 °F 23% 30.20 in 10.0 mi West 5.8 mph - N/A   Clear
4:15 PM 60.8 °F - 21.2 °F 22% 30.19 in 10.0 mi NE 6.9 mph - N/A   Clear
4:35 PM 60.8 °F - 23.0 °F 23% 30.18 in 10.0 mi SSW 8.1 mph - N/A   Clear
4:55 PM 60.8 °F - 23.0 °F 23% 30.18 in 10.0 mi West 10.4 mph - N/A   Clear
5:15 PM 60.8 °F - 21.2 °F 22% 30.18 in 10.0 mi SW 4.6 mph - N/A   Clear
5:35 PM 60.8 °F - 21.2 °F 22% 30.17 in 10.0 mi NNW 4.6 mph - N/A   Clear
5:55 PM 60.8 °F - 21.2 °F 22% 30.17 in 10.0 mi Calm Calm - N/A   Clear
6:15 PM 62.6 °F - 23.0 °F 22% 30.18 in 10.0 mi North 4.6 mph - N/A   Clear
6:35 PM 60.8 °F - 19.4 °F 20% 30.18 in 10.0 mi NNW 10.4 mph 21.9 mph N/A   Clear
6:55 PM 60.8 °F - 19.4 °F 20% 30.19 in 10.0 mi North 8.1 mph 17.3 mph N/A   Clear
7:15 PM 59.0 °F - 17.6 °F 20% 30.19 in 10.0 mi North 12.7 mph 18.4 mph N/A   Clear
7:35 PM 59.0 °F - 17.6 °F 20% 30.20 in 10.0 mi North 10.4 mph - N/A   Clear
7:55 PM 55.4 °F - 17.6 °F 23% 30.21 in 10.0 mi North 8.1 mph - N/A   Clear
8:15 PM 53.6 °F - 17.6 °F 24% 30.22 in 10.0 mi North 8.1 mph - N/A   Clear
8:35 PM 53.6 °F - 15.8 °F 22% 30.22 in 10.0 mi North 12.7 mph - N/A   Clear
8:55 PM 53.6 °F - 15.8 °F 22% 30.24 in 10.0 mi North 5.8 mph - N/A   Clear
9:15 PM 51.8 °F - 17.6 °F 26% 30.25 in 10.0 mi NNE 4.6 mph - N/A   Clear
9:35 PM 51.8 °F - 19.4 °F 28% 30.25 in 10.0 mi NNE 8.1 mph - N/A   Clear
9:55 PM 51.8 °F - 21.2 °F 30% 30.25 in 10.0 mi NE 6.9 mph - N/A   Clear
10:15 PM 50.0 °F - 21.2 °F 32% 30.26 in 10.0 mi NE 6.9 mph - N/A   Clear
10:35 PM 50.0 °F - 23.0 °F 35% 30.27 in 10.0 mi NE 5.8 mph - N/A   Clear
10:55 PM 50.0 °F - 23.0 °F 35% 30.27 in 10.0 mi NNE 3.5 mph - N/A   Clear
11:15 PM 46.4 °F - 23.0 °F 40% 30.28 in 10.0 mi Calm Calm - N/A   Clear
11:35 PM 46.4 °F 45.2 °F 23.0 °F 40% 30.28 in 10.0 mi ENE 3.5 mph - N/A   Clear
11:55 PM 42.8 °F - 26.6 °F 53% 30.29 in 10.0 mi Calm Calm - N/A   Clear